Flag Weather past 2 weeks in Saint George's, Grenada

Now
81 °F

Passing clouds.


Feels Like: 87 °F
Forecast: N/A
Wind: 16 mph from Southeast

Location: Point Salines Airport

Current Time: Nov 23, 2014 at 5:38:04 PM

Latest Report: Nov 23, 2014 at 5:00 PM


Visibility: N/A

Pressure: 29.86 "Hg

Humidity: 89%

Dew point: 77 °F

Location of Saint George'sLocation

Historic Weather in Saint George's — Graph

°F

Saint George's temperature yesterday

Maximum temperature yesterday: 86 °F (at 2:00 PM)
Minimum temperature yesterday: 75 °F (at 6:00 AM)
Average temperature yesterday: 80 °F

Past Weeks' High & Low Weather Summary

 TemperatureHumidityPressure
High88 °F (Nov 11, 11:00 AM)100% (Nov 9, 11:00 PM)30.01 "Hg (Nov 9, 11:00 PM)
Low75 °F (Nov 10, 3:00 AM)66% (Nov 21, 11:00 AM)29.77 "Hg (Nov 8, 4:00 PM)
Average81 °F87%29.88 "Hg
* Reported Nov 8 4:00 PM — Nov 23 4:00 PM, Saint George's, Weather by CustomWeather, © 2014

Note: Actual official high and low records may vary slightly from our data, if they occured in-between our weather recording intervals... More about our weather records

Advertising

Saint George's weather history for previous 24 hours

 ConditionsComfort  
Time TempWeatherWind HumidityBarometerVisibility
4:00 PM
Nov 23
82 °FPassing clouds.16 mph84%29.86 "HgN/A
3:00 PM82 °FPartly sunny.18 mph84%29.86 "HgN/A
2:00 PM82 °FPartly sunny.14 mph79%29.89 "HgN/A
1:00 PM84 °FPartly sunny.17 mph79%29.89 "HgN/A
12:00 PM86 °FPassing clouds.18 mph75%29.92 "HgN/A
11:00 AM86 °FPassing clouds.16 mph75%29.95 "HgN/A
10:00 AM84 °FPartly sunny.20 mph74%29.95 "HgN/A
9:00 AM82 °FPartly sunny.17 mph74%29.95 "HgN/A
8:00 AM82 °FPartly sunny.12 mph79%29.92 "HgN/A
7:00 AM81 °FScattered clouds.15 mph79%29.89 "HgN/A
6:00 AM79 °FPassing clouds.12 mph84%29.89 "HgN/A
5:00 AM79 °FPassing clouds.15 mph84%29.86 "Hg6 mi
4:00 AM79 °FPassing clouds.8 mph89%29.86 "Hg6 mi
3:00 AM79 °FPassing clouds.8 mph84%29.86 "Hg6 mi
2:00 AM79 °FPassing clouds.10 mph89%29.86 "HgN/A
1:00 AM79 °FPassing clouds.12 mph94%29.89 "HgN/A
12:00 AM77 °FSprinkles. Partly cloudy.12 mph100%29.92 "Hg4 mi
11:00 PM
Nov 22
77 °FLight rain. Passing clouds.13 mph94%29.92 "Hg6 mi
10:00 PM77 °FPassing clouds.9 mph94%29.92 "Hg6 mi
9:00 PM77 °FLight rain. Partly cloudy.7 mph94%29.89 "Hg6 mi
8:00 PM81 °FSprinkles. Passing clouds.15 mph84%29.89 "Hg6 mi
7:00 PM81 °FPassing clouds.15 mph84%29.86 "Hg6 mi
6:00 PM81 °FPassing clouds.12 mph84%29.86 "Hg6 mi
5:00 PM82 °FScattered clouds.15 mph84%29.86 "Hg6 mi
Weather by CustomWeather, © 2014

See weather overviewHow to use our weather pages